START_TIME,STEP,MOV.,M35,t_acc.,PL05,t_acc.,PL06,t_acc.,PL07,t_acc.
1979-07-30 15:00:22.930 ,1,0,0.,4.8,3.,4.8,0.,4.8,0.,4.8
1979-07-30 15:00:27.730 ,1,0,0.,4.8,8.,4.8,1.,4.8,0.,4.8
1979-07-30 15:00:32.530 ,1,0,0.,4.8,5.,4.8,1.,4.8,0.,4.8
1979-07-30 15:00:37.330 ,1,0,0.,4.8,4.,4.8,1.,4.8,1.,4.8
1979-07-30 15:00:42.130 ,1,0,0.,4.8,3.,4.8,3.,4.8,0.,4.8
1979-07-30 15:00:46.930 ,2,0,0.,4.8,4.,4.8,1.,4.8,0.,4.8
1979-07-30 15:00:51.730 ,2,0,0.,4.8,2.,4.8,1.,4.8,0.,4.8
1979-07-30 15:00:56.530 ,2,0,0.,4.8,7.,4.8,1.,4.8,0.,4.8
1979-07-30 15:01:01.330 ,2,0,0.,4.8,4.,4.8,3.,4.8,0.,4.8
1979-07-30 15:01:06.130 ,2,0,0.,4.8,7.,4.8,1.,4.8,0.,4.8
1979-07-30 15:01:10.930 ,2,0,0.,4.8,2.,4.8,1.,4.8,0.,4.8
1979-07-30 15:01:15.730 ,2,0,0.,4.8,4.,4.8,0.,4.8,1.,4.8
1979-07-30 15:01:20.530 ,2,0,0.,4.8,7.,4.8,0.,4.8,1.,4.8
1979-07-30 15:01:25.330 ,2,0,0.,4.8,0.,4.8,2.,4.8,0.,4.8
1979-07-30 15:01:30.130 ,2,0,0.,4.8,6.,4.8,0.,4.8,1.,4.8
1979-07-30 15:01:34.930 ,3,0,0.,4.8,4.,4.8,0.,4.8,0.,4.8
1979-07-30 15:01:39.730 ,3,0,0.,4.8,4.,4.8,0.,4.8,0.,4.8
1979-07-30 15:01:44.530 ,3,0,0.,4.8,7.,4.8,0.,4.8,0.,4.8
1979-07-30 15:01:49.330 ,3,0,0.,4.8,7.,4.8,0.,4.8,0.,4.8
1979-07-30 15:01:54.130 ,3,0,0.,4.8,1.,4.8,2.,4.8,1.,4.8
1979-07-30 15:01:58.930 ,3,0,0.,4.8,10.,4.8,0.,4.8,1.,4.8
1979-07-30 15:02:03.730 ,3,0,0.,4.8,5.,4.8,0.,4.8,0.,4.8
1979-07-30 15:02:08.530 ,3,0,0.,4.8,5.,4.8,1.,4.8,0.,4.8
1979-07-30 15:02:13.330 ,3,0,0.,4.8,6.,4.8,0.,4.8,0.,4.8
1979-07-30 15:02:18.130 ,3,0,0.,4.8,7.,4.8,1.,4.8,0.,4.8
1979-07-30 15:02:22.930 ,4,0,0.,4.8,3.,4.8,1.,4.8,0.,4.8
1979-07-30 15:02:27.730 ,4,0,0.,4.8,6.,4.8,0.,4.8,0.,4.8
1979-07-30 15:02:32.530 ,4,0,0.,4.8,2.,4.8,1.,4.8,1.,4.8
1979-07-30 15:02:37.330 ,4,0,0.,4.8,1.,4.8,0.,4.8,0.,4.8
1979-07-30 15:02:42.130 ,4,0,0.,4.8,5.,4.8,0.,4.8,0.,4.8
1979-07-30 15:02:46.930 ,4,0,0.,4.8,5.,4.8,0.,4.8,1.,4.8
1979-07-30 15:02:51.730 ,4,0,0.,4.8,0.,4.8,0.,4.8,0.,4.8
1979-07-30 15:02:56.530 ,4,0,0.,4.8,5.,4.8,0.,4.8,0.,4.8
1979-07-30 15:03:01.330 ,4,0,0.,4.8,2.,4.8,0.,4.8,0.,4.8
1979-07-30 15:03:06.130 ,4,0,0.,4.8,6.,4.8,0.,4.8,0.,4.8
1979-07-30 15:03:10.930 ,5,0,0.,4.8,1.,4.8,0.,4.8,0.,4.8
1979-07-30 15:03:15.730 ,5,0,0.,4.8,4.,4.8,1.,4.8,0.,4.8
1979-07-30 15:03:20.530 ,5,0,0.,4.8,3.,4.8,0.,4.8,1.,4.8
1979-07-30 15:03:25.330 ,5,0,0.,4.8,3.,4.8,1.,4.8,0.,4.8
1979-07-30 15:03:30.130 ,5,0,0.,4.8,6.,4.8,0.,4.8,0.,4.8
1979-07-30 15:03:34.930 ,5,0,0.,4.8,5.,4.8,0.,4.8,1.,4.8
1979-07-30 15:03:39.730 ,5,0,0.,4.8,4.,4.8,0.,4.8,1.,4.8
1979-07-30 15:03:44.530 ,5,0,0.,4.8,4.,4.8,0.,4.8,0.,4.8
1979-07-30 15:03:49.330 ,5,0,0.,4.8,6.,4.8,3.,4.8,0.,4.8
1979-07-30 15:03:54.130 ,5,0,0.,4.8,3.,4.8,0.,4.8,0.,4.8
1979-07-30 15:03:58.930 ,6,0,0.,4.8,4.,4.8,1.,4.8,0.,4.8
1979-07-30 15:04:03.730 ,6,0,0.,4.8,5.,4.8,0.,4.8,0.,4.8
1979-07-30 15:04:08.530 ,6,0,0.,4.8,4.,4.8,1.,4.8,0.,4.8
1979-07-30 15:04:13.330 ,6,0,0.,4.8,4.,4.8,0.,4.8,0.,4.8
1979-07-30 15:04:18.130 ,6,0,0.,4.8,3.,4.8,0.,4.8,1.,4.8
1979-07-30 15:04:22.930 ,6,0,0.,4.8,4.,4.8,0.,4.8,0.,4.8
1979-07-30 15:04:27.730 ,6,0,0.,4.8,3.,4.8,1.,4.8,0.,4.8
1979-07-30 15:04:32.530 ,6,0,0.,4.8,2.,4.8,1.,4.8,0.,4.8
1979-07-30 15:04:37.330 ,6,0,0.,4.8,2.,4.8,0.,4.8,0.,4.8
1979-07-30 15:04:42.130 ,6,0,0.,4.8,5.,4.8,0.,4.8,0.,4.8
1979-07-30 15:04:46.930 ,7,0,0.,4.8,9.,4.8,0.,4.8,0.,4.8
1979-07-30 15:04:51.730 ,7,0,0.,4.8,5.,4.8,1.,4.8,0.,4.8
1979-07-30 15:04:56.530 ,7,0,0.,4.8,1.,4.8,0.,4.8,0.,4.8
1979-07-30 15:05:01.330 ,7,0,0.,4.8,0.,4.8,0.,4.8,0.,4.8
1979-07-30 15:05:06.130 ,7,0,0.,4.8,2.,4.8,1.,4.8,0.,4.8
1979-07-30 15:05:10.930 ,7,0,0.,4.8,3.,4.8,0.,4.8,0.,4.8
1979-07-30 15:05:15.730 ,7,0,0.,4.8,2.,4.8,0.,4.8,0.,4.8
1979-07-30 15:05:20.530 ,7,0,0.,4.8,0.,4.8,0.,4.8,0.,4.8
1979-07-30 15:05:25.330 ,7,0,0.,4.8,1.,4.8,0.,4.8,0.,4.8
1979-07-30 15:05:30.130 ,7,0,0.,4.8,1.,4.8,1.,4.8,0.,4.8
1979-07-30 15:05:34.930 ,7,0,0.,4.8,1.,4.8,0.,4.8,0.,4.8
1979-07-30 15:05:39.730 ,7,0,0.,4.8,0.,4.8,0.,4.8,0.,4.8
1979-07-30 15:05:44.530 ,7,0,0.,4.8,0.,4.8,0.,4.8,1.,4.8
1979-07-30 15:05:49.330 ,7,0,0.,4.8,0.,4.8,1.,4.8,0.,4.8
1979-07-30 15:05:54.130 ,7,0,0.,4.8,0.,4.8,0.,4.8,0.,4.8
1979-07-30 15:05:58.930 ,7,0,0.,4.8,0.,4.8,0.,4.8,0.,4.8
1979-07-30 15:06:03.730 ,7,0,0.,4.8,1.,4.8,1.,4.8,0.,4.8
1979-07-30 15:06:08.530 ,7,0,0.,4.8,0.,4.8,0.,4.8,0.,4.8
1979-07-30 15:06:13.330 ,7,0,0.,4.8,2.,4.8,0.,4.8,0.,4.8
1979-07-30 15:06:18.130 ,7,0,0.,4.8,0.,4.8,0.,4.8,0.,4.8
1979-07-30 15:06:22.930 ,6,0,0.,4.8,0.,4.8,1.,4.8,0.,4.8
1979-07-30 15:06:27.730 ,6,0,0.,4.8,1.,4.8,0.,4.8,0.,4.8
1979-07-30 15:06:32.530 ,6,0,0.,4.8,6.,4.8,0.,4.8,0.,4.8
1979-07-30 15:06:37.330 ,6,0,0.,4.8,8.,4.8,1.,4.8,0.,4.8
1979-07-30 15:06:42.130 ,6,0,0.,4.8,0.,4.8,1.,4.8,1.,4.8
1979-07-30 15:06:46.930 ,6,0,0.,4.8,0.,4.8,0.,4.8,0.,4.8
1979-07-30 15:06:51.730 ,6,0,0.,4.8,4.,4.8,0.,4.8,0.,4.8
1979-07-30 15:06:56.530 ,6,0,0.,4.8,1.,4.8,0.,4.8,0.,4.8
1979-07-30 15:07:01.330 ,6,0,0.,4.8,2.,4.8,0.,4.8,0.,4.8
1979-07-30 15:07:06.130 ,6,0,0.,4.8,2.,4.8,2.,4.8,0.,4.8
1979-07-30 15:07:10.930 ,5,0,0.,4.8,6.,4.8,1.,4.8,0.,4.8
1979-07-30 15:07:15.730 ,5,0,0.,4.8,3.,4.8,1.,4.8,0.,4.8
1979-07-30 15:07:20.530 ,5,0,0.,4.8,4.,4.8,0.,4.8,1.,4.8
1979-07-30 15:07:25.330 ,5,0,0.,4.8,3.,4.8,0.,4.8,0.,4.8
1979-07-30 15:07:30.130 ,5,0,0.,4.8,5.,4.8,1.,4.8,0.,4.8
1979-07-30 15:07:34.930 ,5,0,0.,4.8,7.,4.8,0.,4.8,0.,4.8
1979-07-30 15:07:39.730 ,5,0,0.,4.8,5.,4.8,0.,4.8,0.,4.8
1979-07-30 15:07:44.530 ,5,0,0.,4.8,2.,4.8,0.,4.8,1.,4.8
1979-07-30 15:07:49.330 ,5,0,0.,4.8,2.,4.8,1.,4.8,0.,4.8
1979-07-30 15:07:54.130 ,5,0,0.,4.8,6.,4.8,0.,4.8,1.,4.8
1979-07-30 15:07:58.930 ,4,0,0.,4.8,1.,4.8,1.,4.8,0.,4.8
1979-07-30 15:08:03.730 ,4,0,0.,4.8,5.,4.8,0.,4.8,0.,4.8
1979-07-30 15:08:08.530 ,4,0,0.,4.8,5.,4.8,0.,4.8,0.,4.8
1979-07-30 15:08:13.330 ,4,0,0.,4.8,6.,4.8,0.,4.8,0.,4.8
1979-07-30 15:08:18.130 ,4,0,0.,4.8,4.,4.8,1.,4.8,0.,4.8
1979-07-30 15:08:22.930 ,4,0,0.,4.8,3.,4.8,0.,4.8,0.,4.8
1979-07-30 15:08:27.730 ,4,0,0.,4.8,3.,4.8,0.,4.8,1.,4.8
1979-07-30 15:08:32.530 ,4,0,0.,4.8,6.,4.8,0.,4.8,0.,4.8
1979-07-30 15:08:37.330 ,4,0,0.,4.8,0.,4.8,0.,4.8,0.,4.8
1979-07-30 15:08:42.130 ,4,0,0.,4.8,5.,4.8,1.,4.8,0.,4.8
1979-07-30 15:08:46.930 ,3,0,0.,4.8,4.,4.8,0.,4.8,0.,4.8
1979-07-30 15:08:51.730 ,3,0,0.,4.8,5.,4.8,0.,4.8,0.,4.8
1979-07-30 15:08:56.530 ,3,0,0.,4.8,1.,4.8,2.,4.8,0.,4.8
1979-07-30 15:09:01.330 ,3,0,0.,4.8,3.,4.8,0.,4.8,0.,4.8
1979-07-30 15:09:06.130 ,3,0,0.,4.8,7.,4.8,0.,4.8,0.,4.8
1979-07-30 15:09:10.930 ,3,0,0.,4.8,4.,4.8,0.,4.8,0.,4.8
1979-07-30 15:09:15.730 ,3,0,0.,4.8,6.,4.8,3.,4.8,0.,4.8
1979-07-30 15:09:20.530 ,3,0,0.,4.8,7.,4.8,1.,4.8,1.,4.8
1979-07-30 15:09:25.330 ,3,0,0.,4.8,2.,4.8,0.,4.8,0.,4.8
1979-07-30 15:09:30.130 ,3,0,0.,4.8,1.,4.8,0.,4.8,0.,4.8
1979-07-30 15:09:34.930 ,2,0,0.,4.8,1.,4.8,2.,4.8,0.,4.8
1979-07-30 15:09:39.730 ,2,0,0.,4.8,4.,4.8,0.,4.8,0.,4.8
1979-07-30 15:09:44.530 ,2,0,0.,4.8,2.,4.8,0.,4.8,0.,4.8
1979-07-30 15:09:49.330 ,2,0,0.,4.8,6.,4.8,0.,4.8,0.,4.8
1979-07-30 15:09:54.130 ,2,0,0.,4.8,8.,4.8,1.,4.8,0.,4.8
1979-07-30 15:09:58.930 ,2,0,0.,4.8,5.,4.8,0.,4.8,0.,4.8
1979-07-30 15:10:03.730 ,2,0,0.,4.8,1.,4.8,0.,4.8,0.,4.8
1979-07-30 15:10:08.530 ,2,0,0.,4.8,3.,4.8,0.,4.8,1.,4.8
1979-07-30 15:10:13.330 ,2,0,0.,4.8,1.,4.8,0.,4.8,0.,4.8
1979-07-30 15:10:18.130 ,2,0,0.,4.8,7.,4.8,0.,4.8,0.,4.8
1979-07-30 15:10:22.930 ,1,0,0.,4.8,4.,4.8,0.,4.8,0.,4.8
1979-07-30 15:10:27.730 ,1,0,0.,4.8,8.,4.8,0.,4.8,0.,4.8
1979-07-30 15:10:32.530 ,1,0,0.,4.8,4.,4.8,1.,4.8,0.,4.8
1979-07-30 15:10:37.330 ,1,0,0.,4.8,7.,4.8,0.,4.8,1.,4.8
1979-07-30 15:10:42.130 ,1,0,0.,4.8,2.,4.8,1.,4.8,0.,4.8
1979-07-30 15:10:46.930 ,1,0,0.,4.8,7.,4.8,0.,4.8,0.,4.8
1979-07-30 15:10:51.730 ,1,0,0.,4.8,6.,4.8,0.,4.8,0.,4.8
1979-07-30 15:10:56.530 ,1,0,0.,4.8,4.,4.8,0.,4.8,0.,4.8
1979-07-30 15:11:01.330 ,1,0,0.,4.8,2.,4.8,0.,4.8,0.,4.8
1979-07-30 15:11:06.130 ,1,0,0.,4.8,4.,4.8,2.,4.8,0.,4.8
1979-07-30 15:11:10.930 ,0,0,0.,4.8,4.,4.8,0.,4.8,0.,4.8
1979-07-30 15:11:15.730 ,0,0,0.,4.8,6.,4.8,1.,4.8,0.,4.8
1979-07-30 15:11:20.530 ,0,0,0.,4.8,3.,4.8,1.,4.8,0.,4.8
1979-07-30 15:11:25.330 ,0,0,0.,4.8,3.,4.8,1.,4.8,0.,4.8
1979-07-30 15:11:30.130 ,0,0,0.,4.8,5.,4.8,0.,4.8,0.,4.8
1979-07-30 15:11:34.930 ,0,0,0.,4.8,6.,4.8,1.,4.8,0.,4.8
1979-07-30 15:11:39.730 ,0,0,0.,4.8,3.,4.8,0.,4.8,0.,4.8
1979-07-30 15:11:44.530 ,0,0,0.,4.8,2.,4.8,0.,4.8,0.,4.8
1979-07-30 15:11:49.330 ,0,0,0.,4.8,4.,4.8,0.,4.8,0.,4.8
1979-07-30 15:11:54.130 ,0,0,0.,4.8,1.,4.8,0.,4.8,0.,4.8
1979-07-30 15:11:58.930 ,0,0,0.,4.8,7.,4.8,0.,4.8,0.,4.8
1979-07-30 15:12:03.730 ,0,0,0.,4.8,7.,4.8,2.,4.8,0.,4.8
1979-07-30 15:12:08.530 ,0,0,0.,4.8,7.,4.8,1.,4.8,0.,4.8
1979-07-30 15:12:13.330 ,0,0,0.,4.8,7.,4.8,0.,4.8,0.,4.8
1979-07-30 15:12:18.130 ,0,0,0.,4.8,4.,4.8,2.,4.8,0.,4.8
1979-07-30 15:12:22.930 ,0,0,0.,4.8,5.,4.8,0.,4.8,0.,4.8
1979-07-30 15:12:27.730 ,0,0,0.,4.8,4.,4.8,2.,4.8,0.,4.8
1979-07-30 15:12:32.530 ,0,0,0.,4.8,4.,4.8,0.,4.8,1.,4.8
1979-07-30 15:12:37.330 ,0,0,0.,4.8,2.,4.8,0.,4.8,0.,4.8
1979-07-30 15:12:42.130 ,0,0,0.,4.8,1.,4.8,1.,4.8,0.,4.8
1979-07-30 15:12:46.930 ,1,0,0.,4.8,7.,4.8,0.,4.8,1.,4.8
1979-07-30 15:12:51.730 ,1,0,0.,4.8,1.,4.8,0.,4.8,0.,4.8
1979-07-30 15:12:56.530 ,1,0,0.,4.8,4.,4.8,0.,4.8,0.,4.8
1979-07-30 15:13:01.330 ,1,0,0.,4.8,6.,4.8,0.,4.8,0.,4.8
1979-07-30 15:13:06.130 ,1,0,0.,4.8,4.,4.8,0.,4.8,0.,4.8
1979-07-30 15:13:10.930 ,1,0,0.,4.8,3.,4.8,1.,4.8,0.,4.8
1979-07-30 15:13:15.730 ,1,0,0.,4.8,6.,4.8,0.,4.8,1.,4.8
1979-07-30 15:13:20.530 ,1,0,0.,4.8,5.,4.8,0.,4.8,0.,4.8
1979-07-30 15:13:25.330 ,1,0,0.,4.8,9.,4.8,0.,4.8,0.,4.8
1979-07-30 15:13:30.130 ,1,0,0.,4.8,3.,4.8,0.,4.8,0.,4.8
1979-07-30 15:13:34.930 ,2,0,0.,4.8,4.,4.8,0.,4.8,0.,4.8
1979-07-30 15:13:39.730 ,2,0,0.,4.8,6.,4.8,0.,4.8,0.,4.8
1979-07-30 15:13:44.530 ,2,0,0.,4.8,4.,4.8,1.,4.8,0.,4.8
1979-07-30 15:13:49.330 ,2,0,0.,4.8,7.,4.8,0.,4.8,1.,4.8
1979-07-30 15:13:54.130 ,2,0,0.,4.8,3.,4.8,0.,4.8,1.,4.8
1979-07-30 15:13:58.930 ,2,0,0.,4.8,3.,4.8,0.,4.8,0.,4.8
1979-07-30 15:14:03.730 ,2,0,0.,4.8,4.,4.8,0.,4.8,1.,4.8
1979-07-30 15:14:08.530 ,2,0,0.,4.8,8.,4.8,0.,4.8,1.,4.8
1979-07-30 15:14:13.330 ,2,0,0.,4.8,4.,4.8,0.,4.8,1.,4.8
1979-07-30 15:14:18.130 ,2,0,0.,4.8,3.,4.8,1.,4.8,0.,4.8
1979-07-30 15:14:22.930 ,3,0,0.,4.8,4.,4.8,1.,4.8,0.,4.8
1979-07-30 15:14:27.730 ,3,0,0.,4.8,5.,4.8,1.,4.8,0.,4.8
1979-07-30 15:14:32.530 ,3,0,0.,4.8,5.,4.8,0.,4.8,0.,4.8
1979-07-30 15:14:37.330 ,3,0,0.,4.8,2.,4.8,0.,4.8,0.,4.8
1979-07-30 15:14:42.130 ,3,0,0.,4.8,4.,4.8,0.,4.8,0.,4.8
1979-07-30 15:14:46.930 ,3,0,0.,4.8,8.,4.8,0.,4.8,0.,4.8
1979-07-30 15:14:51.730 ,3,0,0.,4.8,1.,4.8,0.,4.8,0.,4.8
1979-07-30 15:14:56.530 ,3,0,0.,4.8,3.,4.8,2.,4.8,1.,4.8
1979-07-30 15:15:01.330 ,3,0,0.,4.8,3.,4.8,0.,4.8,1.,4.8
1979-07-30 15:15:06.130 ,3,0,0.,4.8,5.,4.8,0.,4.8,0.,4.8
1979-07-30 15:15:10.930 ,4,0,0.,4.8,0.,4.8,1.,4.8,0.,4.8
1979-07-30 15:15:15.730 ,4,0,0.,4.8,2.,4.8,0.,4.8,2.,4.8
1979-07-30 15:15:20.530 ,4,0,0.,4.8,1.,4.8,0.,4.8,0.,4.8
1979-07-30 15:15:25.330 ,4,0,0.,4.8,7.,4.8,1.,4.8,0.,4.8
1979-07-30 15:15:30.130 ,4,0,0.,4.8,3.,4.8,1.,4.8,0.,4.8
1979-07-30 15:15:34.930 ,4,0,0.,4.8,2.,4.8,1.,4.8,0.,4.8
1979-07-30 15:15:39.730 ,4,0,0.,4.8,7.,4.8,0.,4.8,0.,4.8
1979-07-30 15:15:44.530 ,4,0,0.,4.8,4.,4.8,0.,4.8,0.,4.8
1979-07-30 15:15:49.330 ,4,0,0.,4.8,3.,4.8,2.,4.8,1.,4.8
1979-07-30 15:15:54.130 ,4,0,0.,4.8,3.,4.8,2.,4.8,0.,4.8
1979-07-30 15:15:58.930 ,5,0,0.,4.8,3.,4.8,1.,4.8,1.,4.8
1979-07-30 15:16:03.730 ,5,0,0.,4.8,2.,4.8,0.,4.8,0.,4.8
1979-07-30 15:16:08.530 ,5,0,0.,4.8,4.,4.8,0.,4.8,1.,4.8
1979-07-30 15:16:13.330 ,5,0,0.,4.8,4.,4.8,0.,4.8,0.,4.8
1979-07-30 15:16:18.130 ,5,0,0.,4.8,6.,4.8,0.,4.8,0.,4.8
1979-07-30 15:16:22.930 ,5,0,0.,4.8,1.,4.8,0.,4.8,0.,4.8
1979-07-30 15:16:27.730 ,5,0,0.,4.8,1.,4.8,0.,4.8,0.,4.8
1979-07-30 15:16:32.530 ,5,0,0.,4.8,2.,4.8,0.,4.8,0.,4.8
1979-07-30 15:16:37.330 ,5,0,0.,4.8,1.,4.8,0.,4.8,0.,4.8
1979-07-30 15:16:42.130 ,5,0,0.,4.8,1.,4.8,0.,4.8,2.,4.8
1979-07-30 15:16:46.930 ,6,0,0.,4.8,3.,4.8,0.,4.8,0.,4.8
1979-07-30 15:16:51.730 ,6,0,0.,4.8,0.,4.8,0.,4.8,1.,4.8
1979-07-30 15:16:56.530 ,6,0,0.,4.8,4.,4.8,3.,4.8,0.,4.8
1979-07-30 15:17:01.330 ,6,0,0.,4.8,4.,4.8,0.,4.8,0.,4.8
1979-07-30 15:17:06.130 ,6,0,0.,4.8,5.,4.8,0.,4.8,0.,4.8
1979-07-30 15:17:10.930 ,6,0,0.,4.8,5.,4.8,0.,4.8,0.,4.8
1979-07-30 15:17:15.730 ,6,0,0.,4.8,1.,4.8,0.,4.8,1.,4.8
1979-07-30 15:17:20.530 ,6,0,0.,4.8,6.,4.8,1.,4.8,0.,4.8
1979-07-30 15:17:25.330 ,6,0,0.,4.8,2.,4.8,2.,4.8,0.,4.8
1979-07-30 15:17:30.130 ,6,0,0.,4.8,1.,4.8,1.,4.8,0.,4.8
1979-07-30 15:17:34.930 ,7,0,0.,4.8,3.,4.8,0.,4.8,0.,4.8
1979-07-30 15:17:39.730 ,7,0,0.,4.8,1.,4.8,0.,4.8,1.,4.8
1979-07-30 15:17:44.530 ,7,0,0.,4.8,1.,4.8,0.,4.8,0.,4.8
1979-07-30 15:17:49.330 ,7,0,0.,4.8,0.,4.8,0.,4.8,0.,4.8
1979-07-30 15:17:54.130 ,7,0,0.,4.8,0.,4.8,0.,4.8,0.,4.8
1979-07-30 15:17:58.930 ,7,0,0.,4.8,1.,4.8,0.,4.8,0.,4.8
1979-07-30 15:18:03.730 ,7,0,0.,4.8,1.,4.8,1.,4.8,0.,4.8
1979-07-30 15:18:08.530 ,7,0,0.,4.8,1.,4.8,0.,4.8,0.,4.8
1979-07-30 15:18:13.330 ,7,0,0.,4.8,1.,4.8,1.,4.8,0.,4.8
1979-07-30 15:18:18.130 ,7,0,0.,4.8,0.,4.8,0.,4.8,0.,4.8
1979-07-30 15:18:22.930 ,7,0,0.,4.8,1.,4.8,1.,4.8,0.,4.8
1979-07-30 15:18:27.730 ,7,0,0.,4.8,0.,4.8,0.,4.8,0.,4.8
1979-07-30 15:18:32.530 ,7,0,0.,4.8,0.,4.8,0.,4.8,0.,4.8
1979-07-30 15:18:37.330 ,7,0,0.,4.8,1.,4.8,1.,4.8,1.,4.8
1979-07-30 15:18:42.130 ,7,0,0.,4.8,1.,4.8,0.,4.8,0.,4.8
1979-07-30 15:18:46.930 ,7,0,0.,4.8,0.,4.8,0.,4.8,0.,4.8
1979-07-30 15:18:51.730 ,7,0,0.,4.8,0.,4.8,0.,4.8,0.,4.8
1979-07-30 15:18:56.530 ,7,0,0.,4.8,1.,4.8,0.,4.8,1.,4.8
1979-07-30 15:19:01.330 ,7,0,0.,4.8,1.,4.8,0.,4.8,0.,4.8
1979-07-30 15:19:06.130 ,7,0,0.,4.8,1.,4.8,1.,4.8,0.,4.8
1979-07-30 15:19:10.930 ,6,0,0.,4.8,2.,4.8,0.,4.8,0.,4.8
1979-07-30 15:19:15.730 ,6,0,0.,4.8,1.,4.8,0.,4.8,0.,4.8
1979-07-30 15:19:20.530 ,6,0,0.,4.8,6.,4.8,1.,4.8,0.,4.8
1979-07-30 15:19:25.330 ,6,0,0.,4.8,6.,4.8,0.,4.8,0.,4.8
1979-07-30 15:19:30.130 ,6,0,0.,4.8,5.,4.8,0.,4.8,0.,4.8
1979-07-30 15:19:34.930 ,6,0,0.,4.8,2.,4.8,0.,4.8,0.,4.8
1979-07-30 15:19:39.730 ,6,0,0.,4.8,4.,4.8,0.,4.8,0.,4.8
1979-07-30 15:19:44.530 ,6,0,0.,4.8,0.,4.8,2.,4.8,0.,4.8
1979-07-30 15:19:49.330 ,6,0,0.,4.8,2.,4.8,0.,4.8,0.,4.8
1979-07-30 15:19:54.130 ,6,0,0.,4.8,3.,4.8,0.,4.8,0.,4.8
1979-07-30 15:19:58.930 ,5,0,0.,4.8,3.,4.8,1.,4.8,0.,4.8
1979-07-30 15:20:03.730 ,5,0,0.,4.8,5.,4.8,0.,4.8,0.,4.8
1979-07-30 15:20:08.530 ,5,0,0.,4.8,1.,4.8,2.,4.8,0.,4.8
1979-07-30 15:20:13.330 ,5,0,0.,4.8,1.,4.8,2.,4.8,0.,4.8
1979-07-30 15:20:18.130 ,5,0,0.,4.8,3.,4.8,1.,4.8,0.,4.8
1979-07-30 15:20:22.930 ,5,0,0.,4.8,4.,4.8,0.,4.8,0.,4.8
1979-07-30 15:20:27.730 ,5,0,0.,4.8,2.,4.8,0.,4.8,0.,4.8
1979-07-30 15:20:32.530 ,5,0,0.,4.8,3.,4.8,1.,4.8,0.,4.8
1979-07-30 15:20:37.330 ,5,0,0.,4.8,5.,4.8,0.,4.8,0.,4.8
1979-07-30 15:20:42.130 ,5,0,0.,4.8,3.,4.8,0.,4.8,0.,4.8
1979-07-30 15:20:46.930 ,4,0,0.,4.8,4.,4.8,1.,4.8,0.,4.8
1979-07-30 15:20:51.730 ,4,0,0.,4.8,6.,4.8,0.,4.8,1.,4.8
1979-07-30 15:20:56.530 ,4,0,0.,4.8,2.,4.8,0.,4.8,0.,4.8
1979-07-30 15:21:01.330 ,4,0,0.,4.8,1.,4.8,0.,4.8,0.,4.8
1979-07-30 15:21:06.130 ,4,0,0.,4.8,1.,4.8,0.,4.8,0.,4.8
1979-07-30 15:21:10.930 ,4,0,0.,4.8,5.,4.8,0.,4.8,0.,4.8
1979-07-30 15:21:15.730 ,4,0,0.,4.8,7.,4.8,0.,4.8,0.,4.8
1979-07-30 15:21:20.530 ,4,0,0.,4.8,1.,4.8,0.,4.8,0.,4.8
1979-07-30 15:21:25.330 ,4,0,0.,4.8,2.,4.8,0.,4.8,0.,4.8
1979-07-30 15:21:30.130 ,4,0,0.,4.8,4.,4.8,0.,4.8,0.,4.8
1979-07-30 15:21:34.930 ,3,0,0.,4.8,3.,4.8,0.,4.8,0.,4.8
1979-07-30 15:21:39.730 ,3,0,0.,4.8,3.,4.8,0.,4.8,0.,4.8
1979-07-30 15:21:44.530 ,3,0,0.,4.8,1.,4.8,0.,4.8,0.,4.8
1979-07-30 15:21:49.330 ,3,0,0.,4.8,1.,4.8,1.,4.8,1.,4.8
1979-07-30 15:21:54.130 ,3,0,0.,4.8,4.,4.8,2.,4.8,1.,4.8
1979-07-30 15:21:58.930 ,3,0,0.,4.8,4.,4.8,0.,4.8,0.,4.8
1979-07-30 15:22:03.730 ,3,0,0.,4.8,4.,4.8,0.,4.8,0.,4.8
1979-07-30 15:22:08.530 ,3,0,0.,4.8,8.,4.8,0.,4.8,1.,4.8
1979-07-30 15:22:13.330 ,3,0,0.,4.8,3.,4.8,0.,4.8,0.,4.8
1979-07-30 15:22:18.130 ,3,0,0.,4.8,3.,4.8,0.,4.8,0.,4.8
1979-07-30 15:22:22.930 ,2,0,0.,4.8,3.,4.8,1.,4.8,0.,4.8
1979-07-30 15:22:27.730 ,2,0,0.,4.8,1.,4.8,0.,4.8,0.,4.8
1979-07-30 15:22:32.530 ,2,0,0.,4.8,3.,4.8,1.,4.8,0.,4.8
1979-07-30 15:22:37.330 ,2,0,0.,4.8,1.,4.8,2.,4.8,0.,4.8
1979-07-30 15:22:42.130 ,2,0,0.,4.8,2.,4.8,1.,4.8,1.,4.8
1979-07-30 15:22:46.930 ,2,0,0.,4.8,4.,4.8,1.,4.8,0.,4.8
1979-07-30 15:22:51.730 ,2,0,0.,4.8,7.,4.8,1.,4.8,0.,4.8
1979-07-30 15:22:56.530 ,2,0,0.,4.8,4.,4.8,0.,4.8,0.,4.8
1979-07-30 15:23:01.330 ,2,0,0.,4.8,7.,4.8,0.,4.8,1.,4.8
1979-07-30 15:23:06.130 ,2,0,0.,4.8,3.,4.8,0.,4.8,0.,4.8
1979-07-30 15:23:10.930 ,1,0,0.,4.8,3.,4.8,0.,4.8,0.,4.8
1979-07-30 15:23:15.730 ,1,0,0.,4.8,2.,4.8,1.,4.8,0.,4.8
1979-07-30 15:23:20.530 ,1,0,0.,4.8,6.,4.8,0.,4.8,1.,4.8
1979-07-30 15:23:25.330 ,1,0,0.,4.8,3.,4.8,0.,4.8,0.,4.8
1979-07-30 15:23:30.130 ,1,0,0.,4.8,7.,4.8,0.,4.8,0.,4.8
1979-07-30 15:23:34.930 ,1,0,0.,4.8,0.,4.8,0.,4.8,0.,4.8
1979-07-30 15:23:39.730 ,1,0,0.,4.8,8.,4.8,0.,4.8,0.,4.8
1979-07-30 15:23:44.530 ,1,0,0.,4.8,5.,4.8,1.,4.8,0.,4.8
1979-07-30 15:23:49.330 ,1,0,0.,4.8,3.,4.8,3.,4.8,0.,4.8
1979-07-30 15:23:54.130 ,1,0,0.,4.8,5.,4.8,0.,4.8,0.,4.8
1979-07-30 15:23:58.930 ,0,0,1.,4.8,1.,4.8,1.,4.8,0.,4.8
1979-07-30 15:24:03.730 ,0,0,0.,4.8,3.,4.8,0.,4.8,0.,4.8
1979-07-30 15:24:08.530 ,0,0,0.,4.8,6.,4.8,0.,4.8,0.,4.8
1979-07-30 15:24:13.330 ,0,0,0.,4.8,6.,4.8,1.,4.8,1.,4.8
1979-07-30 15:24:18.130 ,0,0,0.,4.8,5.,4.8,0.,4.8,0.,4.8
1979-07-30 15:24:22.930 ,0,0,0.,4.8,7.,4.8,1.,4.8,0.,4.8
1979-07-30 15:24:27.730 ,0,0,0.,4.8,0.,4.8,1.,4.8,0.,4.8
1979-07-30 15:24:32.530 ,0,0,0.,4.8,3.,4.8,0.,4.8,0.,4.8
1979-07-30 15:24:37.330 ,0,0,0.,4.8,8.,4.8,0.,4.8,1.,4.8
1979-07-30 15:24:42.130 ,0,0,0.,4.8,8.,4.8,0.,4.8,0.,4.8
1979-07-30 15:24:46.930 ,0,0,0.,4.8,3.,4.8,1.,4.8,0.,4.8
1979-07-30 15:24:51.730 ,0,0,0.,4.8,6.,4.8,1.,4.8,0.,4.8
1979-07-30 15:24:56.530 ,0,0,0.,4.8,3.,4.8,0.,4.8,0.,4.8
1979-07-30 15:25:01.330 ,0,0,0.,4.8,5.,4.8,2.,4.8,1.,4.8
1979-07-30 15:25:06.130 ,0,0,0.,4.8,6.,4.8,1.,4.8,0.,4.8
1979-07-30 15:25:10.930 ,0,0,0.,4.8,7.,4.8,1.,4.8,1.,4.8
1979-07-30 15:25:15.730 ,0,0,0.,4.8,2.,4.8,1.,4.8,0.,4.8
1979-07-30 15:25:20.530 ,0,0,0.,4.8,4.,4.8,1.,4.8,0.,4.8
1979-07-30 15:25:25.330 ,0,0,0.,4.8,8.,4.8,0.,4.8,0.,4.8
1979-07-30 15:25:30.130 ,0,0,0.,4.8,6.,4.8,0.,4.8,1.,4.8
1979-07-30 15:25:34.930 ,1,0,0.,4.8,3.,4.8,1.,4.8,0.,4.8
1979-07-30 15:25:39.730 ,1,0,0.,4.8,5.,4.8,3.,4.8,0.,4.8
1979-07-30 15:25:44.530 ,1,0,0.,4.8,3.,4.8,0.,4.8,0.,4.8
1979-07-30 15:25:49.330 ,1,0,0.,4.8,6.,4.8,1.,4.8,0.,4.8
1979-07-30 15:25:54.130 ,1,0,0.,4.8,4.,4.8,1.,4.8,1.,4.8
1979-07-30 15:25:58.930 ,1,0,0.,4.8,3.,4.8,0.,4.8,0.,4.8
1979-07-30 15:26:03.730 ,1,0,0.,4.8,7.,4.8,0.,4.8,0.,4.8
1979-07-30 15:26:08.530 ,1,0,0.,4.8,2.,4.8,0.,4.8,0.,4.8
1979-07-30 15:26:13.330 ,1,0,0.,4.8,1.,4.8,0.,4.8,0.,4.8
1979-07-30 15:26:18.130 ,1,0,0.,4.8,2.,4.8,0.,4.8,1.,4.8
1979-07-30 15:26:22.930 ,2,0,0.,4.8,6.,4.8,0.,4.8,0.,4.8
1979-07-30 15:26:27.730 ,2,0,0.,4.8,4.,4.8,2.,4.8,0.,4.8
1979-07-30 15:26:32.530 ,2,0,0.,4.8,1.,4.8,0.,4.8,0.,4.8
1979-07-30 15:26:37.330 ,2,0,0.,4.8,2.,4.8,1.,4.8,0.,4.8
1979-07-30 15:26:42.130 ,2,0,0.,4.8,3.,4.8,0.,4.8,0.,4.8
1979-07-30 15:26:46.930 ,2,0,0.,4.8,3.,4.8,0.,4.8,1.,4.8
1979-07-30 15:26:51.730 ,2,0,0.,4.8,4.,4.8,0.,4.8,0.,4.8
1979-07-30 15:26:56.530 ,2,0,0.,4.8,8.,4.8,0.,4.8,1.,4.8
1979-07-30 15:27:01.330 ,2,0,0.,4.8,2.,4.8,0.,4.8,0.,4.8
1979-07-30 15:27:06.130 ,2,0,0.,4.8,2.,4.8,0.,4.8,0.,4.8
1979-07-30 15:27:10.930 ,3,0,0.,4.8,4.,4.8,1.,4.8,0.,4.8
1979-07-30 15:27:15.730 ,3,0,0.,4.8,5.,4.8,0.,4.8,1.,4.8
1979-07-30 15:27:20.530 ,3,0,0.,4.8,1.,4.8,2.,4.8,0.,4.8
1979-07-30 15:27:25.330 ,3,0,0.,4.8,3.,4.8,0.,4.8,0.,4.8
1979-07-30 15:27:30.130 ,3,0,0.,4.8,2.,4.8,1.,4.8,0.,4.8
1979-07-30 15:27:34.930 ,3,0,0.,4.8,2.,4.8,1.,4.8,1.,4.8
1979-07-30 15:27:39.730 ,3,0,0.,4.8,5.,4.8,1.,4.8,1.,4.8
1979-07-30 15:27:44.530 ,3,0,0.,4.8,1.,4.8,0.,4.8,0.,4.8
1979-07-30 15:27:49.330 ,3,0,0.,4.8,2.,4.8,0.,4.8,1.,4.8
1979-07-30 15:27:54.130 ,3,0,0.,4.8,3.,4.8,0.,4.8,0.,4.8
1979-07-30 15:27:58.930 ,4,0,0.,4.8,1.,4.8,0.,4.8,0.,4.8
1979-07-30 15:28:03.730 ,4,0,0.,4.8,4.,4.8,0.,4.8,0.,4.8
1979-07-30 15:28:08.530 ,4,0,0.,4.8,1.,4.8,0.,4.8,1.,4.8
1979-07-30 15:28:13.330 ,4,0,0.,4.8,4.,4.8,0.,4.8,0.,4.8
1979-07-30 15:28:18.130 ,4,0,0.,4.8,0.,4.8,0.,4.8,0.,4.8
1979-07-30 15:28:22.930 ,4,0,0.,4.8,3.,4.8,1.,4.8,0.,4.8
1979-07-30 15:28:27.730 ,4,0,0.,4.8,1.,4.8,0.,4.8,0.,4.8
1979-07-30 15:28:32.530 ,4,0,0.,4.8,5.,4.8,1.,4.8,0.,4.8
1979-07-30 15:28:37.330 ,4,0,0.,4.8,2.,4.8,0.,4.8,0.,4.8
1979-07-30 15:28:42.130 ,4,0,0.,4.8,1.,4.8,0.,4.8,0.,4.8
1979-07-30 15:28:46.930 ,5,0,0.,4.8,2.,4.8,1.,4.8,0.,4.8
1979-07-30 15:28:51.730 ,5,0,0.,4.8,4.,4.8,0.,4.8,0.,4.8
1979-07-30 15:28:56.530 ,5,0,0.,4.8,4.,4.8,0.,4.8,0.,4.8
1979-07-30 15:29:01.330 ,5,0,0.,4.8,5.,4.8,0.,4.8,0.,4.8
1979-07-30 15:29:06.130 ,5,0,0.,4.8,4.,4.8,0.,4.8,0.,4.8
1979-07-30 15:29:10.930 ,5,0,0.,4.8,2.,4.8,0.,4.8,0.,4.8
1979-07-30 15:29:15.730 ,5,0,0.,4.8,1.,4.8,0.,4.8,0.,4.8
1979-07-30 15:29:20.530 ,5,0,0.,4.8,4.,4.8,0.,4.8,0.,4.8
1979-07-30 15:29:25.330 ,5,0,0.,4.8,1.,4.8,1.,4.8,0.,4.8
1979-07-30 15:29:30.130 ,5,0,0.,4.8,4.,4.8,0.,4.8,0.,4.8
1979-07-30 15:29:34.930 ,6,0,0.,4.8,2.,4.8,0.,4.8,1.,4.8
1979-07-30 15:29:39.730 ,6,0,0.,4.8,2.,4.8,2.,4.8,0.,4.8
1979-07-30 15:29:44.530 ,6,0,0.,4.8,4.,4.8,0.,4.8,0.,4.8
1979-07-30 15:29:49.330 ,6,0,0.,4.8,2.,4.8,0.,4.8,0.,4.8
1979-07-30 15:29:54.130 ,6,0,0.,4.8,2.,4.8,1.,4.8,0.,4.8
1979-07-30 15:29:58.930 ,6,0,0.,4.8,3.,4.8,1.,4.8,0.,4.8
1979-07-30 15:30:03.730 ,6,0,0.,4.8,1.,4.8,0.,4.8,0.,4.8
1979-07-30 15:30:08.530 ,6,0,0.,4.8,2.,4.8,0.,4.8,0.,4.8
1979-07-30 15:30:13.330 ,6,0,0.,4.8,3.,4.8,0.,4.8,2.,4.8
1979-07-30 15:30:18.130 ,6,0,0.,4.8,3.,4.8,1.,4.8,2.,4.8
1979-07-30 15:30:22.930 ,7,0,0.,4.8,2.,4.8,0.,4.8,0.,4.8
1979-07-30 15:30:27.730 ,7,0,0.,4.8,1.,4.8,1.,4.8,1.,4.8
1979-07-30 15:30:32.530 ,7,0,0.,4.8,0.,4.8,0.,4.8,1.,4.8
1979-07-30 15:30:37.330 ,7,0,0.,4.8,0.,4.8,0.,4.8,0.,4.8
1979-07-30 15:30:42.130 ,7,0,0.,4.8,4.,4.8,0.,4.8,0.,4.8
1979-07-30 15:30:46.930 ,7,0,0.,4.8,0.,4.8,0.,4.8,0.,4.8
1979-07-30 15:30:51.730 ,7,0,0.,4.8,1.,4.8,0.,4.8,0.,4.8
1979-07-30 15:30:56.530 ,7,0,0.,4.8,0.,4.8,0.,4.8,0.,4.8
1979-07-30 15:31:01.330 ,7,0,0.,4.8,0.,4.8,0.,4.8,0.,4.8
1979-07-30 15:31:06.130 ,7,0,0.,4.8,1.,4.8,0.,4.8,0.,4.8
1979-07-30 15:31:10.930 ,3,1,0.,4.8,1.,4.8,0.,4.8,0.,4.8
1979-07-30 15:31:15.730 ,3,1,0.,4.8,3.,4.8,0.,4.8,0.,4.8
1979-07-30 15:31:20.530 ,3,1,0.,4.8,1.,4.8,0.,4.8,0.,4.8
1979-07-30 15:31:25.330 ,3,1,0.,4.8,0.,4.8,0.,4.8,0.,4.8
1979-07-30 15:31:30.130 ,3,1,0.,4.8,0.,4.8,2.,4.8,0.,4.8
1979-07-30 15:31:34.930 ,0,1,0.,4.8,3.,4.8,1.,4.8,0.,4.8
1979-07-30 15:31:39.730 ,0,1,0.,4.8,4.,4.8,0.,4.8,0.,4.8
1979-07-30 15:31:44.530 ,0,1,0.,4.8,5.,4.8,0.,4.8,0.,4.8
1979-07-30 15:31:49.330 ,0,1,0.,4.8,4.,4.8,1.,4.8,0.,4.8
1979-07-30 15:31:54.130 ,0,1,0.,4.8,1.,4.8,2.,4.8,0.,4.8
1979-07-30 15:31:58.930 ,4,1,0.,4.8,5.,4.8,0.,4.8,0.,4.8
1979-07-30 15:32:03.730 ,4,1,0.,4.8,5.,4.8,0.,4.8,0.,4.8
1979-07-30 15:32:08.530 ,4,1,0.,4.8,5.,4.8,0.,4.8,0.,4.8
1979-07-30 15:32:13.330 ,4,1,0.,4.8,3.,4.8,0.,4.8,0.,4.8
1979-07-30 15:32:18.130 ,4,1,0.,4.8,1.,4.8,0.,4.8,1.,4.8
1979-07-30 15:32:22.930 ,7,1,0.,4.8,0.,4.8,0.,4.8,0.,4.8
1979-07-30 15:32:27.730 ,7,1,0.,4.8,1.,4.8,1.,4.8,0.,4.8
1979-07-30 15:32:32.530 ,7,1,0.,4.8,1.,4.8,0.,4.8,0.,4.8
1979-07-30 15:32:37.330 ,7,1,0.,4.8,0.,4.8,1.,4.8,0.,4.8
1979-07-30 15:32:42.130 ,7,1,0.,4.8,0.,4.8,0.,4.8,1.,4.8
1979-07-30 15:32:46.930 ,3,1,0.,4.8,2.,4.8,0.,4.8,0.,4.8
1979-07-30 15:32:51.730 ,3,1,0.,4.8,5.,4.8,0.,4.8,0.,4.8
1979-07-30 15:32:56.530 ,3,1,0.,4.8,3.,4.8,0.,4.8,0.,4.8
1979-07-30 15:33:01.330 ,3,1,0.,4.8,0.,4.8,0.,4.8,0.,4.8
1979-07-30 15:33:06.130 ,3,1,0.,4.8,2.,4.8,1.,4.8,0.,4.8
1979-07-30 15:33:10.930 ,0,1,0.,4.8,2.,4.8,1.,4.8,0.,4.8
1979-07-30 15:33:15.730 ,0,1,0.,4.8,2.,4.8,0.,4.8,0.,4.8